Regional Weather Roundup
Issued by NWS

Home | Current Version | Previous Version | Graphics & Text | Print | Product List | Glossary On
Versions: 1 2 3 4 5 6 7 8 9 10 11 12 13 14 15 16 17 18 19 20 21 22 23 24 25 26 27 28 29 30 31 32 33 34 35 36 37 38 39 40 41 42 43 44 45 46 47 48 49 50
858
ASUS43 KLMK 240810
RWRKY
KENTUCKY REGIONAL WEATHER ROUNDUP
NATIONAL WEATHER SERVICE LOUISVILLE KY
400 AM EDT TUE MAY 24 2016

NOTE "FAIR" INDICATES FEW OR NO CLOUDS BELOW 12,000 FEET
WITH NO SIGNIFICANT WEATHER AND/OR OBSTRUCTIONS TO VISIBILITY.

KYZ001>023-026-027-061>063-070>075-240900-
WESTERN AND SOUTH CENTRAL KENTUCKY

CITY           SKY/WX    TMP DP  RH WIND       PRES   REMARKS
PADUCAH        PTCLDY    61  55  81 CALM      29.99R
HENDERSON      CLEAR     61  48  63 CALM      30.00R
OWENSBORO      CLEAR     61  49  64 CALM      30.02R
HOPKINSVILLE   CLEAR     61  52  72 CALM      30.02R
BOWLING GREEN  CLEAR     53  49  86 NE3       30.02S
GLASGOW        CLEAR     49  49 100 CALM      30.03S
$$

KYZ024-025-028>034-038-045-046-053-240900-
NORTH CENTRAL KENTUCKY

CITY           SKY/WX    TMP DP  RH WIND       PRES   REMARKS
LOUISVILLE/SDF PTCLDY    61  50  67 S5        30.00S
LOUISVILLE/LOU CLEAR     56  50  80 CALM      30.01F
FORT KNOX      CLEAR     50  49  94 SW2       30.01R
$$

KYZ035>037-039>044-047>052-055>060-089>105-240900-
NORTHEAST KENTUCKY

CITY           SKY/WX    TMP DP  RH WIND       PRES   REMARKS
LEXINGTON      CLEAR     54  50  86 S3        30.04S
COVINGTON      CLEAR     55  51  86 CALM      30.02F
FRANKFORT      CLEAR     52  48  86 E5        30.01F
$$

KYZ054-064>069-076>088-106>120-240900-
SOUTHEAST KENTUCKY

CITY           SKY/WX    TMP DP  RH WIND       PRES   REMARKS
JACKSON        CLEAR     57  49  74 CALM      30.06S
LONDON         CLEAR     51  48  89 CALM      30.05S
SOMERSET       CLEAR     48  48 100 CALM      30.05F
MIDDLESBORO    CLEAR     49  49  99 CALM      30.09S
MONTICELLO     SUNNY     49  48  97 NW9       30.05F
$$





USA.gov is the U.S. government's official web portal to all federal, state and local government web resources and services.